Vorticity
12 12 12 11 10 8 7 6 5 4 4 4 5 5 6 7 7 8 9 9 8 7 6 5 6 7 8 8 6 3 1 3 4 7 9 9 11 11 11 9 8 8 7 6 6 5 5 7 8 9 10 9 10 10 10 9 7 4 2 3 3 4 5 7 6 6 5 5 21 21 7 6 4 10 15 11 18 16 6 1 1 7 8 3 7 14 13 12
12 12 12 12 12 11 11 10 9 8 6 5 5 4 4 4 5 6 6 8 8 8 8 7 6 6 7 8 8 6 3 3 3 5 6 6 9 11 11 11 8 7 8 7 6 5 4 5 6 7 7 8 10 9 9 9 8 7 6 4 5 5 4 5 6 5 5 7 17 17 12 11 3 8 12 7 11 14 9 -0 1 6 2 -0 5 12 13 11
12 12 12 12 12 12 11 12 12 11 11 10 9 7 6 5 4 4 4 5 6 7 8 8 8 6 6 6 7 7 6 6 4 3 4 4 8 10 11 12 11 8 8 8 8 6 4 4 6 6 7 8 9 9 8 9 9 8 8 7 9 8 3 4 3 4 5 6 12 10 13 13 5 6 8 5 5 7 5 -1 5 8 1 3 5 3 3 4
12 12 12 13 12 12 11 11 11 11 12 11 11 11 10 9 8 6 5 4 4 4 5 8 9 8 7 6 6 6 6 7 6 4 4 4 5 8 10 11 11 10 9 8 9 8 5 3 5 6 7 7 9 10 9 9 9 9 8 7 12 11 5 6 5 5 4 6 11 6 13 16 4 -1 0 3 1 2 2 -2 6 7 3 7 5 -1 -3 2
12 12 12 12 12 12 11 11 11 11 11 11 11 11 11 11 10 10 9 8 7 4 3 4 6 8 8 8 7 6 4 5 7 7 7 5 3 5 8 10 11 11 10 8 9 10 8 4 3 4 5 5 7 9 10 12 11 10 9 8 12 12 10 8 6 7 5 6 8 3 15 21 6 0 2 -0 0 5 -1 -5 1 -4 -4 4 4 1 -3 3
11 11 11 11 11 11 11 11 11 11 11 11 11 11 11 11 11 11 10 10 10 9 7 4 4 4 6 7 8 7 5 5 6 6 8 8 4 3 4 7 10 11 11 10 9 9 10 8 4 3 4 5 5 6 8 11 12 11 10 11 12 12 13 11 7 7 6 3 0 -1 11 15 8 5 2 -3 -0 3 -8 -5 2 -11 -8 3 3 4 3 5
9 10 10 10 10 10 10 10 10 11 11 11 11 11 11 11 11 11 11 11 11 11 11 10 8 6 5 5 6 7 6 7 8 4 5 7 7 5 4 7 9 10 11 11 10 9 11 11 8 5 3 3 5 6 6 7 10 9 8 10 11 12 14 13 9 8 7 4 5 7 6 7 10 6 3 5 3 -3 -9 7 14 -8 -10 1 2 4 5 5
8 8 8 8 8 8 8 9 9 10 10 11 11 11 11 11 12 11 11 11 11 11 11 12 12 12 10 7 7 7 4 6 8 5 4 4 7 8 6 8 9 11 12 11 10 9 8 9 11 9 4 3 5 5 6 6 7 7 7 9 10 11 12 14 13 9 7 6 9 9 4 4 8 4 5 9 2 -5 1 22 34 18 3 3 4 4 3 6
7 6 7 7 7 7 7 8 8 8 9 9 9 10 10 11 11 11 12 11 11 11 10 12 12 13 13 12 12 9 6 9 9 6 5 5 7 9 8 6 5 7 10 12 11 9 8 9 12 14 9 4 3 4 4 4 6 7 7 8 10 10 11 13 14 13 10 7 7 4 5 7 3 0 4 6 2 2 9 19 29 32 23 12 7 5 5 6
6 6 7 7 7 7 7 7 7 8 8 8 9 9 9 10 10 11 11 11 12 11 11 11 11 12 12 13 13 10 13 17 14 9 7 6 6 7 9 8 7 6 6 9 11 10 11 11 10 12 10 6 2 2 3 3 4 6 6 7 8 9 10 11 12 15 13 8 5 -0 3 7 1 -1 3 4 5 8 13 10 9 18 21 15 9 6 6 2
6 6 6 7 7 7 7 7 7 7 7 7 8 9 9 10 10 10 10 11 11 11 11 11 11 12 11 12 12 12 18 18 16 15 10 8 9 8 9 9 10 11 10 11 12 13 12 10 8 7 8 9 8 3 2 4 4 5 5 5 6 6 8 9 10 14 13 8 6 2 2 2 -2 -1 3 3 5 7 10 7 5 12 14 13 13 12 10 3
7 7 7 7 7 7 7 8 7 8 8 8 8 8 9 9 10 10 11 11 11 11 11 11 11 11 11 13 10 15 21 16 14 16 12 12 13 12 11 11 10 10 11 11 13 15 13 9 7 7 9 11 11 7 3 3 3 4 5 4 5 5 5 6 9 12 12 11 12 7 1 -0 -2 1 5 2 3 5 6 5 5 10 11 11 14 15 17 12
8 8 8 8 8 8 8 9 9 9 9 9 9 9 9 8 9 9 10 11 12 13 12 12 12 11 13 11 7 12 18 14 13 16 15 16 16 15 15 14 14 12 10 11 12 13 13 10 8 10 10 9 9 9 8 5 1 2 3 4 4 4 5 5 9 12 10 11 14 6 -1 4 6 4 5 2 2 4 6 5 3 6 8 8 11 13 17 17
7 7 8 9 9 10 10 11 11 12 12 13 13 12 12 11 10 9 9 9 10 12 12 13 13 13 14 7 2 10 15 13 17 20 19 18 14 14 15 14 14 14 12 12 11 10 11 11 10 12 11 11 13 12 11 9 5 2 1 1 2 2 4 5 8 10 9 11 10 1 0 13 14 6 5 3 3 5 6 5 2 5 5 5 8 9 13 16
8 9 10 11 13 14 15 15 16 17 17 18 18 17 17 16 15 14 13 11 11 10 10 12 13 16 16 5 1 11 15 14 18 17 12 11 11 12 15 15 13 13 12 11 10 9 9 8 8 10 10 11 13 10 10 10 9 6 2 1 1 1 2 4 6 7 10 13 6 -4 1 17 21 15 11 7 7 9 8 5 3 4 4 3 4 7 10 12
11 13 14 15 17 18 18 19 19 19 20 20 19 19 18 18 17 17 17 16 15 14 12 12 13 16 15 7 7 13 13 10 12 15 12 11 16 18 16 12 12 13 13 13 10 7 5 4 5 7 9 8 7 9 10 10 9 8 6 4 3 1 0 1 2 4 8 10 4 -2 2 12 19 20 19 18 17 12 7 5 4 4 3 2 4 7 7 9
13 14 16 17 18 19 19 19 18 18 19 18 17 17 17 18 18 17 18 17 17 18 19 16 15 16 14 9 12 15 13 8 8 14 14 9 11 17 17 14 14 12 13 12 8 6 4 3 6 7 7 6 7 7 6 6 9 9 8 7 5 3 2 0 1 2 3 6 4 3 5 7 12 16 18 22 21 16 10 6 5 5 3 0 3 6 5 8
15 16 17 17 17 17 16 16 16 16 15 14 14 14 13 14 16 17 18 19 18 18 19 18 17 18 15 10 10 14 17 16 11 13 14 10 10 14 17 17 14 11 10 8 6 8 7 7 9 7 4 3 4 2 2 8 12 11 11 10 8 6 4 2 2 1 0 2 2 3 5 5 8 10 14 17 15 13 12 8 6 8 6 1 3 6 6 6
16 16 17 18 18 18 19 19 19 18 18 17 16 15 15 15 14 13 15 17 18 18 18 18 19 21 18 12 9 9 15 19 16 14 13 10 10 15 18 15 11 10 8 6 7 9 9 10 7 2 2 4 7 6 8 12 12 12 14 14 12 10 8 6 5 4 3 2 1 2 2 4 7 7 12 16 14 11 10 9 7 7 6 3 5 5 3 4
18 19 21 22 23 25 27 26 24 26 26 25 25 26 26 24 21 18 15 13 14 15 17 20 21 21 20 18 14 9 11 16 16 15 12 8 7 10 16 16 12 9 7 7 10 10 9 5 2 5 10 13 13 11 11 11 8 7 10 12 13 13 11 10 9 8 9 8 5 2 1 4 7 6 9 14 15 12 10 10 9 9 8 6 7 5 1 2
21 24 26 27 28 30 29 27 27 29 29 29 29 29 27 26 26 26 23 21 20 17 14 16 21 22 19 20 20 14 10 12 15 16 14 11 10 9 11 14 13 11 12 12 11 9 4 -0 3 13 16 14 12 10 9 11 7 5 6 8 10 12 12 12 10 9 13 15 9 5 4 4 6 6 7 10 13 12 10 11 9 9 9 8 8 4 0 1
25 27 29 29 29 29 28 27 27 28 28 28 27 27 27 28 29 28 27 26 28 32 24 14 17 18 15 17 22 21 12 9 13 15 14 10 9 13 15 13 13 17 19 14 8 5 1 3 10 15 13 11 10 9 8 9 8 7 6 6 7 9 10 11 10 8 13 16 10 6 6 1 3 6 6 9 12 13 13 10 9 8 6 10 8 3 3 4
27 28 28 26 25 25 22 20 21 22 22 23 25 25 25 27 29 29 32 27 22 33 35 22 18 17 12 15 21 24 18 12 12 13 15 13 7 9 16 15 15 17 15 11 9 7 7 11 14 12 12 10 8 8 9 8 7 7 6 6 7 7 9 10 11 10 13 16 10 8 10 2 2 6 6 10 11 10 13 10 9 8 5 8 4 -0 5 5
23 22 19 14 14 12 9 9 11 12 11 14 18 18 18 21 24 24 29 29 18 19 30 28 25 22 15 14 17 20 18 14 14 12 13 17 13 7 10 17 17 13 11 12 13 11 12 16 16 12 12 11 9 7 8 7 7 7 7 7 7 7 8 10 12 12 12 14 8 5 10 6 2 4 4 10 13 10 13 9 6 8 7 10 5 1 5 6
18 15 10 9 7 3 5 8 8 6 5 8 11 12 13 9 11 17 23 29 22 18 28 31 28 26 20 18 18 18 19 17 16 13 12 15 16 10 7 11 14 12 13 14 12 11 11 13 15 13 11 11 10 7 7 9 10 8 7 8 7 7 8 9 11 12 12 16 14 6 9 10 4 5 3 3 11 14 13 8 3 6 8 8 7 6 8 10
22 19 15 14 11 10 12 11 8 7 5 4 6 11 9 3 7 19 26 28 22 19 25 29 28 28 25 22 20 15 15 21 21 17 13 12 15 15 9 6 10 15 16 14 11 11 10 9 11 12 13 12 8 8 9 10 9 7 10 11 8 6 8 10 11 11 12 18 19 10 7 8 5 7 7 0 7 14 11 8 5 5 8 9 10 7 6 10
27 25 25 22 19 16 14 14 11 7 7 2 2 11 13 13 16 27 44 45 35 29 29 33 32 31 32 28 25 20 13 17 27 25 17 14 14 16 15 8 7 13 15 12 8 8 10 10 9 10 13 13 8 9 12 10 7 8 13 13 7 7 8 11 12 11 15 17 15 11 8 9 5 6 14 10 5 7 9 10 8 6 7 8 4 1 5 12
20 19 25 31 29 23 18 19 11 7 12 0 2 21 22 17 19 44 69 57 44 36 23 31 33 25 32 32 29 29 17 12 23 27 21 19 16 14 17 15 9 12 13 10 9 11 13 10 9 10 10 10 8 11 13 10 8 10 14 12 9 10 7 10 14 15 20 13 8 14 12 10 6 3 14 15 1 -0 11 14 8 6 7 4 -0 2 12 11
14 11 21 31 30 30 26 20 14 16 12 -1 15 33 20 9 18 64 79 32 23 24 -1 19 36 19 24 30 28 31 22 13 16 19 19 19 19 15 15 16 13 12 10 11 14 12 12 11 12 12 10 10 11 12 12 9 9 12 13 11 10 12 9 10 14 18 18 6 6 18 14 8 6 3 13 17 2 -2 13 18 9 5 3 -2 -2 3 8 6
11 9 24 33 23 23 28 26 25 21 9 14 37 27 8 6 14 62 65 -2 1 19 -7 17 36 15 18 22 24 31 26 19 15 16 17 15 18 17 14 15 14 12 8 10 15 12 11 12 12 13 11 11 13 13 12 9 9 12 12 10 9 10 12 10 11 15 8 -0 11 20 11 5 -1 -6 8 18 10 7 17 21 12 6 2 -0 3 5 4 1
11 10 23 36 23 15 26 29 22 19 23 33 30 5 4 16 14 46 39 -20 -4 21 5 23 28 17 27 23 22 29 24 19 13 15 17 11 14 15 12 14 14 13 9 5 10 13 11 8 9 13 12 10 11 12 13 11 8 9 12 12 9 9 12 9 7 7 -1 1 18 17 5 4 -3 -6 5 12 11 11 13 11 6 7 5 1 1 -1 -3 -4
16 11 15 30 29 17 16 16 12 22 32 18 -1 -5 10 17 15 31 16 -14 12 26 18 33 23 10 24 26 27 28 23 22 14 15 19 12 11 12 10 12 12 12 11 6 8 13 11 7 9 12 13 11 10 10 11 11 8 7 10 11 9 9 9 5 2 2 -2 5 20 14 2 3 3 2 1 2 12 13 1 1 9 16 12 8 10 10 12 14
21 14 9 21 39 28 8 7 17 25 15 -4 -5 6 11 12 15 19 9 3 21 26 23 34 21 2 8 26 34 26 23 27 20 17 23 17 12 11 9 11 13 12 12 11 10 10 9 8 8 8 9 11 11 10 7 7 7 5 6 9 10 8 3 3 4 3 2 5 12 11 4 4 4 3 -1 -1 16 25 15 15 26 32 31 32 34 31 28 23
29 22 11 18 42 36 11 13 24 15 -0 1 10 10 7 11 10 11 14 13 18 29 29 25 18 4 5 25 33 25 21 24 21 17 20 20 12 10 9 9 13 12 12 14 9 8 8 4 6 6 8 10 11 12 10 11 14 10 9 11 10 7 4 6 5 1 3 3 3 4 2 5 4 2 4 -1 1 16 21 21 22 20 15 11 10 8 7 4
35 29 14 19 35 31 19 22 21 4 -3 8 12 8 9 11 11 13 15 15 22 33 27 14 12 4 7 25 26 24 23 17 17 15 16 23 14 9 12 7 11 13 11 14 11 10 10 6 12 12 10 11 10 12 12 10 15 15 13 10 6 9 9 9 7 3 5 3 2 3 -2 2 4 2 8 2 -1 14 22 16 11 7 3 -2 -0 1 0 3
34 34 16 13 23 28 27 22 13 1 2 11 10 8 9 11 20 18 14 23 27 26 21 16 12 -2 9 32 20 18 28 16 14 13 13 25 16 9 14 7 9 13 10 14 11 10 11 8 12 12 10 12 9 12 12 5 11 17 13 7 8 15 13 10 9 7 7 5 4 6 -2 -3 0 0 3 -3 -2 13 16 10 6 2 2 -1 -1 3 4 9
22 34 26 13 10 17 18 13 11 6 3 10 10 9 10 12 18 13 15 29 21 17 24 19 11 -3 9 38 21 9 26 20 15 16 13 23 20 10 12 8 8 11 10 13 12 11 13 11 13 12 13 16 10 15 18 9 10 13 12 13 12 9 8 10 11 7 5 4 4 10 8 1 -2 -0 -0 -6 -1 11 8 4 3 0 -0 -4 -4 5 8 6
8 22 29 25 19 16 10 8 13 7 1 9 11 9 10 13 19 17 21 28 17 18 19 6 11 5 0 29 24 7 22 18 11 21 17 18 22 14 11 10 8 8 10 14 13 11 9 11 18 14 11 15 11 16 23 16 10 10 17 21 10 4 9 11 10 9 6 1 -1 5 10 6 -3 -4 0 -1 5 11 6 3 8 10 9 4 2 6 6 4
8 9 11 18 28 28 20 17 15 5 2 10 10 6 8 14 22 22 18 19 18 20 11 -0 15 10 -4 23 27 10 23 21 10 22 21 15 22 20 12 12 9 6 11 14 12 14 11 8 15 18 17 16 8 6 13 13 9 9 17 20 12 11 15 11 9 11 10 5 0 -2 2 5 -1 -4 3 8 6 5 6 10 15 18 16 9 5 3 3 2
13 12 7 6 15 21 24 27 21 13 9 10 8 8 17 21 21 22 16 14 19 14 5 5 11 12 16 32 24 7 20 26 15 22 26 16 21 22 14 13 11 6 11 15 11 14 13 3 6 20 24 15 4 4 9 13 11 7 10 15 16 14 10 9 14 14 10 12 12 4 -2 1 2 2 5 3 -4 -2 6 12 15 17 15 8 5 3 -0 -1
11 15 13 10 10 10 15 16 12 13 10 13 19 15 15 14 17 27 17 11 18 2 -6 10 15 22 31 21 9 5 14 24 19 24 30 20 20 24 14 12 14 8 8 13 13 13 9 6 9 16 17 12 12 16 16 15 14 13 12 12 13 12 4 3 9 13 12 13 18 17 8 5 6 5 5 1 -7 -7 -1 4 8 13 14 8 4 5 7 7
7 11 12 15 16 11 9 5 2 6 2 6 21 16 9 10 18 30 17 7 14 -6 -10 15 20 24 22 1 0 7 9 24 26 23 26 20 20 23 15 16 17 10 9 16 23 18 6 9 13 9 10 13 17 21 18 15 16 16 15 12 12 13 8 2 2 11 18 14 16 20 16 18 18 11 14 21 21 12 -1 -7 1 10 13 10 3 2 4 5
6 9 10 12 16 15 15 12 7 9 3 0 11 13 14 14 11 20 21 15 12 -2 2 18 13 16 13 -6 -0 9 13 29 32 24 22 20 27 24 16 21 19 10 13 19 25 18 0 3 8 6 13 16 16 19 12 7 10 8 8 11 12 11 12 9 -0 3 14 13 12 14 11 16 23 25 28 30 33 33 17 -0 1 9 11 8 4 2 -0 0
6 9 9 7 10 12 16 20 17 15 8 3 9 12 12 13 13 22 28 22 13 8 13 15 12 20 16 3 10 17 16 19 22 26 18 11 31 35 22 21 16 10 14 15 22 14 -4 3 9 8 13 12 12 10 -4 -6 4 7 9 12 11 11 14 12 -2 -6 5 10 11 13 10 4 3 14 27 25 27 36 31 15 7 8 9 6 2 3 2 2
13 12 14 13 12 10 9 14 18 20 14 8 14 14 6 11 25 27 18 9 7 12 15 13 15 18 11 9 16 14 10 5 9 24 14 4 27 38 25 17 11 13 15 14 21 10 -6 4 10 7 10 8 6 1 -7 2 11 8 8 7 6 14 19 12 1 -8 -6 2 7 8 8 7 1 4 15 21 26 28 21 16 12 7 7 6 3 0 -1 -0
17 17 21 22 20 19 14 10 11 16 17 13 15 17 12 16 24 21 12 10 13 17 16 11 12 12 7 12 14 8 10 11 12 17 13 13 25 23 17 15 9 13 15 14 18 6 -6 1 -0 1 14 15 13 9 7 14 11 2 6 4 1 18 28 18 3 -7 -10 -4 4 5 5 9 13 15 18 20 22 17 4 3 10 9 5 6 8 7 5 4
11 12 16 17 18 20 20 17 13 9 11 16 15 11 10 14 15 16 19 21 21 20 13 6 7 10 9 11 12 9 13 20 22 18 14 20 22 15 18 19 9 9 12 13 15 5 0 3 -5 -1 18 19 15 15 12 9 1 0 11 9 3 17 31 26 10 -0 -5 -9 -2 12 15 6 2 10 18 19 16 12 5 -3 -1 4 4 5 6 7 10 12
9 10 10 12 13 14 15 19 20 12 9 15 13 5 4 10 13 15 14 14 17 14 7 5 9 9 5 6 11 12 15 23 24 17 14 20 20 20 25 17 5 8 10 8 11 4 0 6 2 6 24 25 16 14 10 8 10 13 13 8 6 11 18 24 23 17 10 -3 -6 8 13 4 0 4 10 16 16 13 11 6 1 1 3 4 5 7 10 12
9 10 10 11 12 12 12 13 16 16 14 16 13 7 5 6 9 13 9 8 11 9 6 12 17 13 9 14 18 14 11 16 17 11 13 21 21 21 21 7 -2 10 12 7 9 1 -4 7 7 6 21 23 13 15 18 20 23 15 3 4 10 7 2 7 16 20 22 14 1 1 2 -3 3 10 6 9 18 15 8 8 9 8 7 7 8 11 14 17
11 11 10 11 11 11 12 12 13 13 13 18 19 14 9 4 4 11 13 13 13 8 7 13 15 14 17 19 17 11 7 9 14 14 14 19 20 19 19 6 -5 7 15 11 10 -1 -6 8 6 -4 9 15 10 19 25 20 14 4 4 13 11 1 -3 0 5 13 22 18 1 -4 2 -2 2 14 7 -2 12 22 11 1 2 3 6 8 8 8 9 12
11 10 7 10 12 11 11 12 15 16 15 17 21 20 18 13 9 16 26 28 20 8 7 17 18 12 12 13 8 9 10 5 9 18 17 16 18 15 13 6 -7 1 13 15 15 3 -3 15 14 -3 5 14 16 28 26 12 7 8 14 16 4 -3 2 5 10 15 16 14 1 -6 0 2 4 14 9 -4 4 18 17 10 5 3 5 8 7 1 -4 -3
9 10 7 9 12 11 10 9 11 17 19 19 22 23 22 19 18 22 22 16 12 8 11 28 33 14 0 2 3 7 9 -1 2 19 21 17 17 10 7 5 -4 -4 5 14 23 8 -6 14 24 9 7 11 13 26 27 13 8 12 13 6 -2 2 6 6 12 11 3 5 6 -1 -2 1 8 13 11 4 1 3 13 21 16 9 5 2 3 6 4 7
Height
5735 5733 5732 5732 5731 5730 5729 5729 5728 5728 5728 5727 5727 5727 5727 5727 5727 5728 5728 5729 5730 5731 5731 5731 5732 5733 5734 5735 5737 5738 5740 5742 5743 5744 5747 5748 5747 5749 5753 5755 5756 5759 5761 5762 5763 5765 5768 5770 5771 5772 5773 5776 5778 5780 5782 5784 5786 5786 5789 5791 5794 5800 5805 5810 5811 5812 5814 5816 5818 5817 5817 5819 5821 5822 5825 5826 5826 5828 5828 5829 5829 5832 5834 5837 5841 5841 5841 5844
5728 5727 5726 5725 5724 5723 5723 5722 5721 5721 5721 5720 5720 5720 5720 5720 5720 5721 5721 5722 5723 5724 5724 5725 5725 5726 5728 5729 5730 5733 5734 5736 5737 5739 5740 5741 5742 5744 5747 5748 5750 5753 5755 5757 5758 5760 5763 5765 5766 5767 5769 5771 5774 5775 5777 5779 5780 5782 5785 5787 5792 5798 5803 5806 5807 5808 5810 5813 5813 5813 5815 5817 5817 5818 5821 5823 5824 5825 5826 5826 5826 5829 5833 5836 5838 5839 5838 5839
5722 5721 5720 5719 5718 5717 5716 5715 5714 5714 5713 5713 5713 5713 5713 5713 5713 5713 5714 5714 5715 5716 5717 5717 5718 5719 5721 5722 5724 5726 5728 5729 5731 5732 5733 5735 5737 5739 5741 5742 5744 5747 5750 5752 5753 5755 5757 5760 5761 5763 5765 5767 5769 5770 5772 5774 5776 5779 5781 5784 5790 5795 5798 5801 5803 5805 5808 5809 5809 5810 5813 5813 5814 5815 5817 5819 5820 5821 5822 5823 5824 5827 5833 5834 5834 5835 5835 5836
5717 5715 5714 5713 5712 5710 5710 5708 5707 5707 5706 5706 5705 5705 5705 5705 5705 5705 5706 5707 5707 5708 5709 5709 5711 5712 5714 5716 5717 5720 5722 5723 5724 5725 5727 5729 5731 5734 5735 5737 5739 5741 5744 5746 5748 5750 5752 5754 5756 5759 5761 5763 5766 5766 5768 5771 5773 5775 5778 5782 5788 5790 5793 5797 5799 5802 5805 5805 5805 5807 5809 5809 5809 5810 5812 5816 5816 5817 5820 5821 5822 5827 5832 5831 5829 5831 5832 5833
5711 5710 5708 5707 5705 5704 5703 5702 5701 5700 5699 5698 5698 5697 5697 5697 5697 5697 5698 5698 5699 5700 5701 5702 5703 5704 5706 5708 5710 5713 5715 5716 5718 5719 5721 5723 5724 5727 5729 5731 5733 5735 5737 5740 5743 5745 5747 5749 5752 5754 5756 5759 5761 5762 5765 5768 5770 5772 5776 5780 5783 5785 5789 5793 5795 5798 5800 5801 5801 5803 5806 5806 5805 5806 5808 5811 5812 5813 5816 5818 5820 5827 5829 5827 5826 5827 5829 5831
5706 5705 5703 5701 5699 5698 5696 5695 5694 5693 5692 5691 5690 5690 5689 5689 5689 5689 5690 5690 5691 5691 5692 5694 5695 5697 5699 5701 5703 5706 5708 5710 5712 5713 5714 5716 5718 5721 5723 5725 5727 5729 5731 5734 5737 5739 5742 5744 5747 5749 5752 5755 5757 5759 5763 5765 5766 5769 5773 5776 5778 5780 5785 5789 5791 5794 5796 5796 5797 5799 5802 5802 5803 5804 5804 5807 5809 5809 5812 5815 5819 5824 5825 5824 5824 5824 5826 5830
5701 5699 5697 5695 5693 5692 5690 5689 5687 5686 5685 5684 5683 5683 5682 5682 5681 5681 5682 5682 5683 5683 5684 5685 5686 5688 5690 5693 5696 5698 5701 5703 5704 5706 5708 5710 5711 5714 5717 5720 5722 5724 5726 5728 5732 5734 5737 5739 5742 5745 5748 5751 5753 5757 5760 5761 5763 5765 5769 5772 5774 5777 5781 5784 5787 5790 5792 5793 5795 5796 5797 5798 5799 5801 5802 5805 5806 5807 5810 5814 5817 5820 5821 5822 5823 5823 5824 5827
5694 5692 5691 5689 5687 5685 5684 5682 5681 5679 5678 5677 5676 5675 5674 5674 5673 5673 5673 5673 5674 5674 5675 5676 5678 5680 5682 5686 5687 5691 5695 5694 5694 5698 5701 5703 5705 5708 5710 5714 5717 5719 5721 5723 5726 5729 5731 5734 5737 5740 5743 5747 5751 5754 5756 5757 5758 5761 5765 5767 5770 5773 5776 5780 5782 5785 5788 5790 5793 5793 5793 5794 5795 5796 5799 5802 5803 5805 5810 5813 5815 5818 5819 5820 5821 5820 5821 5824
5688 5686 5684 5682 5680 5678 5676 5675 5673 5672 5671 5669 5668 5667 5667 5666 5665 5665 5665 5665 5665 5666 5667 5668 5669 5671 5674 5677 5679 5685 5687 5684 5686 5691 5694 5697 5699 5702 5704 5707 5711 5714 5716 5718 5721 5723 5726 5729 5733 5736 5740 5744 5747 5750 5752 5753 5754 5757 5761 5764 5766 5769 5772 5775 5778 5781 5784 5786 5788 5789 5790 5791 5790 5792 5796 5799 5802 5805 5808 5810 5812 5814 5816 5817 5817 5817 5819 5821
5682 5679 5677 5675 5673 5670 5669 5667 5665 5664 5662 5661 5660 5659 5658 5657 5657 5657 5657 5657 5657 5658 5658 5659 5661 5663 5667 5668 5672 5679 5677 5674 5679 5683 5686 5689 5692 5696 5698 5700 5704 5707 5710 5712 5715 5718 5722 5725 5728 5731 5734 5738 5740 5744 5746 5747 5750 5754 5757 5760 5762 5765 5768 5770 5773 5777 5779 5781 5783 5784 5786 5786 5786 5788 5792 5796 5800 5804 5806 5807 5808 5809 5811 5812 5813 5813 5815 5817
5675 5672 5670 5667 5665 5663 5660 5658 5657 5655 5653 5652 5650 5650 5649 5648 5648 5648 5648 5648 5649 5650 5650 5652 5653 5655 5659 5660 5666 5670 5665 5666 5671 5673 5678 5681 5684 5688 5689 5693 5697 5700 5704 5707 5710 5713 5717 5720 5723 5725 5728 5732 5735 5739 5742 5744 5748 5751 5752 5755 5757 5759 5762 5765 5768 5772 5774 5776 5779 5780 5781 5782 5782 5784 5788 5792 5796 5801 5803 5803 5804 5805 5807 5809 5809 5810 5812 5814
5668 5665 5662 5659 5656 5654 5651 5649 5647 5645 5644 5642 5641 5640 5639 5638 5638 5638 5638 5639 5640 5641 5642 5643 5644 5648 5649 5653 5661 5659 5654 5660 5662 5665 5671 5673 5676 5680 5682 5687 5690 5694 5698 5701 5705 5709 5712 5714 5717 5720 5723 5727 5730 5734 5737 5740 5744 5747 5749 5751 5753 5755 5757 5760 5763 5767 5770 5772 5776 5776 5776 5777 5779 5782 5785 5788 5791 5795 5798 5799 5801 5803 5804 5806 5806 5807 5808 5810
5660 5656 5653 5650 5647 5644 5642 5639 5637 5635 5634 5632 5631 5629 5628 5628 5628 5628 5629 5629 5630 5632 5633 5634 5636 5639 5640 5648 5655 5647 5645 5653 5654 5659 5665 5666 5669 5672 5675 5680 5683 5687 5691 5695 5699 5703 5706 5708 5711 5715 5719 5722 5725 5729 5732 5736 5739 5742 5744 5746 5749 5750 5752 5756 5760 5763 5765 5768 5772 5771 5770 5773 5778 5780 5783 5785 5786 5791 5795 5795 5798 5800 5802 5803 5804 5805 5805 5806
5651 5648 5644 5641 5637 5634 5632 5629 5627 5625 5623 5622 5620 5618 5618 5617 5617 5618 5618 5620 5621 5622 5624 5625 5628 5629 5632 5643 5645 5636 5639 5645 5647 5653 5656 5657 5662 5665 5669 5673 5677 5681 5685 5689 5692 5696 5700 5703 5706 5710 5714 5718 5722 5725 5727 5731 5734 5738 5739 5740 5743 5744 5748 5753 5757 5760 5762 5764 5767 5766 5766 5771 5776 5778 5780 5781 5784 5788 5791 5792 5795 5797 5799 5800 5801 5802 5802 5803
5643 5639 5635 5631 5627 5624 5621 5618 5616 5614 5612 5611 5608 5607 5606 5606 5606 5606 5607 5609 5610 5613 5615 5616 5619 5619 5625 5635 5633 5629 5635 5637 5639 5643 5646 5650 5655 5659 5663 5665 5670 5674 5678 5682 5684 5688 5693 5696 5700 5704 5709 5714 5718 5720 5722 5726 5729 5732 5734 5735 5738 5740 5744 5750 5753 5756 5759 5761 5763 5763 5764 5769 5774 5776 5777 5780 5783 5786 5787 5788 5792 5794 5795 5796 5797 5798 5799 5800
5633 5629 5625 5621 5617 5613 5610 5608 5605 5603 5601 5599 5597 5596 5595 5594 5595 5595 5595 5598 5599 5602 5605 5607 5608 5610 5618 5624 5622 5623 5627 5627 5630 5634 5639 5645 5649 5652 5654 5657 5662 5667 5671 5674 5677 5681 5685 5689 5694 5698 5703 5707 5711 5714 5717 5721 5723 5726 5728 5730 5734 5737 5741 5746 5749 5753 5757 5758 5759 5760 5762 5767 5772 5774 5775 5778 5781 5783 5783 5785 5788 5790 5792 5792 5794 5795 5796 5796
5623 5619 5614 5610 5607 5603 5600 5597 5594 5592 5590 5588 5586 5585 5583 5582 5584 5584 5584 5586 5588 5591 5594 5596 5597 5602 5610 5613 5611 5613 5616 5620 5624 5627 5632 5637 5641 5644 5647 5651 5655 5659 5664 5667 5670 5674 5678 5682 5687 5692 5696 5700 5704 5708 5710 5713 5715 5718 5722 5726 5730 5734 5737 5742 5746 5750 5753 5755 5757 5759 5760 5764 5769 5771 5773 5776 5779 5780 5780 5781 5784 5787 5788 5789 5790 5791 5790 5791
5613 5608 5604 5600 5596 5592 5589 5586 5583 5582 5580 5577 5575 5575 5573 5572 5573 5573 5574 5576 5578 5579 5582 5584 5586 5593 5601 5601 5601 5602 5607 5614 5618 5620 5625 5630 5634 5636 5639 5644 5647 5651 5656 5659 5664 5668 5672 5677 5681 5686 5690 5693 5697 5700 5702 5707 5712 5716 5720 5724 5728 5731 5734 5738 5743 5746 5750 5753 5755 5757 5757 5761 5766 5768 5770 5773 5775 5776 5776 5778 5780 5782 5784 5784 5786 5786 5786 5788
5603 5598 5594 5590 5586 5582 5578 5575 5573 5571 5569 5567 5565 5564 5563 5562 5563 5563 5564 5566 5568 5569 5571 5574 5576 5583 5589 5590 5591 5593 5599 5607 5610 5614 5619 5622 5627 5630 5634 5637 5639 5644 5649 5653 5658 5662 5665 5670 5674 5678 5683 5687 5691 5695 5700 5707 5713 5717 5720 5724 5727 5730 5733 5737 5741 5745 5748 5751 5754 5755 5756 5759 5763 5765 5767 5770 5771 5771 5772 5774 5775 5777 5779 5779 5781 5782 5784 5787
5593 5589 5584 5580 5575 5571 5567 5564 5562 5561 5559 5557 5555 5555 5553 5551 5551 5552 5554 5557 5559 5560 5562 5564 5567 5572 5578 5579 5580 5585 5591 5597 5602 5607 5610 5614 5619 5623 5627 5631 5633 5638 5643 5649 5653 5656 5659 5663 5668 5675 5680 5685 5690 5694 5699 5706 5711 5714 5717 5720 5724 5727 5730 5734 5738 5742 5746 5748 5751 5754 5754 5756 5760 5762 5764 5766 5767 5766 5768 5771 5771 5773 5774 5775 5778 5780 5782 5785
5585 5580 5575 5571 5567 5563 5559 5556 5554 5552 5550 5548 5547 5546 5543 5542 5542 5543 5545 5549 5550 5550 5553 5555 5557 5563 5569 5570 5569 5574 5582 5589 5595 5599 5602 5607 5612 5617 5621 5624 5628 5632 5638 5643 5645 5649 5653 5658 5666 5673 5679 5684 5688 5692 5697 5702 5707 5710 5712 5716 5719 5723 5726 5730 5734 5739 5743 5745 5748 5750 5750 5752 5756 5759 5761 5762 5762 5763 5765 5767 5768 5769 5769 5772 5776 5777 5779 5782
5577 5572 5567 5563 5560 5557 5553 5549 5548 5546 5543 5542 5540 5538 5536 5535 5534 5535 5537 5542 5542 5540 5542 5546 5547 5553 5559 5562 5561 5564 5573 5582 5587 5590 5594 5600 5605 5612 5616 5619 5624 5630 5634 5636 5639 5644 5649 5656 5664 5670 5675 5680 5684 5688 5692 5698 5702 5705 5708 5711 5714 5718 5722 5726 5730 5735 5739 5740 5743 5745 5745 5748 5753 5756 5757 5758 5759 5761 5762 5764 5765 5765 5766 5769 5773 5775 5776 5778
5570 5566 5562 5558 5555 5552 5548 5545 5543 5541 5538 5537 5535 5532 5531 5529 5528 5528 5528 5533 5537 5532 5530 5534 5539 5545 5551 5553 5551 5555 5566 5575 5579 5582 5587 5593 5599 5605 5610 5615 5620 5624 5627 5631 5637 5642 5646 5654 5661 5665 5669 5674 5678 5682 5687 5692 5697 5701 5704 5706 5710 5714 5718 5723 5727 5731 5735 5736 5739 5742 5741 5744 5749 5751 5753 5755 5756 5757 5759 5760 5761 5760 5763 5767 5770 5772 5773 5775
5565 5561 5558 5554 5551 5549 5546 5541 5539 5538 5535 5533 5531 5529 5527 5525 5523 5523 5521 5524 5530 5526 5522 5526 5532 5537 5540 5540 5542 5550 5560 5566 5571 5576 5581 5587 5592 5598 5605 5610 5613 5616 5622 5629 5634 5638 5644 5652 5658 5661 5665 5670 5674 5678 5683 5687 5692 5697 5701 5703 5707 5712 5717 5722 5726 5729 5731 5733 5735 5737 5737 5738 5743 5747 5749 5752 5753 5754 5755 5756 5756 5757 5761 5764 5766 5768 5769 5772
5561 5557 5554 5550 5547 5545 5543 5538 5535 5534 5532 5529 5528 5525 5523 5522 5519 5518 5516 5517 5522 5520 5518 5520 5523 5528 5530 5533 5540 5547 5552 5558 5564 5569 5574 5580 5585 5591 5598 5603 5607 5613 5619 5624 5629 5634 5640 5647 5653 5657 5662 5666 5670 5675 5680 5685 5690 5694 5698 5701 5706 5711 5716 5721 5724 5725 5727 5729 5732 5733 5731 5732 5739 5743 5746 5749 5750 5750 5751 5752 5752 5754 5758 5761 5764 5766 5767 5770
5556 5552 5549 5546 5542 5540 5539 5535 5531 5531 5529 5526 5525 5523 5520 5518 5514 5511 5509 5511 5515 5515 5514 5516 5518 5521 5525 5529 5535 5540 5546 5554 5558 5562 5568 5574 5579 5584 5590 5596 5604 5610 5614 5619 5624 5629 5635 5642 5647 5652 5657 5662 5666 5671 5677 5681 5686 5690 5695 5700 5704 5708 5714 5718 5721 5722 5724 5727 5729 5729 5728 5730 5735 5739 5742 5746 5746 5746 5748 5749 5750 5752 5755 5758 5761 5763 5765 5767
5552 5548 5544 5541 5537 5535 5535 5532 5528 5527 5526 5524 5522 5520 5517 5514 5510 5505 5502 5505 5509 5510 5512 5513 5514 5517 5520 5524 5530 5535 5542 5548 5551 5558 5566 5570 5573 5578 5584 5591 5599 5604 5609 5613 5618 5625 5631 5636 5641 5646 5651 5656 5661 5667 5673 5677 5681 5686 5694 5698 5701 5706 5711 5716 5718 5719 5722 5725 5725 5726 5726 5727 5730 5734 5739 5741 5742 5743 5744 5747 5749 5751 5753 5756 5759 5761 5763 5765
5549 5545 5540 5536 5532 5530 5531 5529 5526 5525 5524 5522 5520 5517 5515 5511 5505 5499 5496 5500 5505 5507 5509 5510 5511 5513 5516 5520 5526 5532 5537 5539 5545 5554 5560 5564 5569 5575 5581 5588 5594 5599 5604 5608 5615 5623 5626 5629 5636 5642 5647 5651 5657 5665 5670 5674 5677 5684 5693 5696 5699 5705 5709 5713 5715 5717 5720 5721 5721 5723 5724 5723 5724 5729 5733 5736 5739 5740 5742 5745 5747 5749 5752 5754 5757 5759 5761 5763
5547 5543 5538 5533 5529 5526 5526 5526 5524 5523 5522 5521 5518 5516 5513 5509 5504 5496 5494 5498 5502 5505 5506 5507 5509 5511 5513 5517 5521 5526 5530 5534 5540 5546 5551 5559 5566 5571 5577 5583 5589 5594 5600 5607 5613 5618 5622 5629 5636 5640 5644 5650 5656 5662 5667 5671 5675 5684 5691 5693 5697 5702 5707 5710 5712 5714 5717 5715 5715 5719 5720 5720 5722 5725 5728 5732 5735 5738 5740 5743 5746 5748 5750 5753 5755 5757 5758 5761
5546 5541 5536 5531 5528 5524 5523 5523 5522 5521 5520 5519 5517 5515 5513 5509 5504 5498 5496 5499 5502 5504 5505 5505 5507 5508 5511 5513 5517 5521 5525 5529 5535 5540 5546 5553 5560 5566 5572 5578 5584 5590 5597 5604 5608 5614 5622 5628 5631 5636 5643 5650 5656 5660 5664 5669 5674 5682 5687 5689 5694 5699 5704 5707 5709 5712 5711 5707 5710 5716 5717 5717 5718 5721 5725 5729 5732 5735 5738 5741 5744 5746 5748 5751 5753 5755 5757 5760
5545 5540 5535 5531 5527 5525 5523 5522 5521 5520 5520 5519 5517 5515 5512 5509 5505 5501 5501 5502 5503 5504 5504 5504 5505 5507 5509 5512 5514 5518 5521 5526 5532 5537 5542 5547 5553 5561 5567 5573 5581 5587 5593 5598 5605 5613 5618 5620 5626 5634 5641 5646 5651 5656 5661 5666 5670 5676 5682 5686 5690 5695 5700 5703 5705 5706 5703 5701 5709 5714 5714 5714 5714 5718 5723 5728 5730 5732 5735 5740 5743 5745 5746 5749 5752 5754 5756 5758
5544 5540 5535 5531 5527 5525 5524 5522 5522 5521 5520 5519 5517 5515 5512 5509 5506 5505 5504 5504 5504 5504 5504 5504 5505 5507 5509 5511 5513 5516 5520 5525 5530 5535 5541 5546 5550 5556 5562 5569 5576 5583 5588 5594 5601 5608 5612 5617 5625 5631 5636 5640 5645 5650 5655 5660 5664 5670 5676 5681 5685 5689 5693 5695 5697 5698 5696 5699 5708 5711 5711 5712 5712 5716 5722 5726 5728 5728 5732 5738 5741 5743 5745 5748 5751 5753 5754 5757
5544 5540 5535 5531 5527 5525 5524 5523 5523 5522 5520 5519 5517 5515 5512 5510 5508 5507 5506 5506 5505 5504 5504 5505 5506 5508 5510 5512 5513 5516 5520 5525 5530 5534 5540 5545 5549 5554 5559 5565 5573 5580 5587 5592 5597 5602 5608 5615 5620 5625 5630 5635 5640 5645 5649 5653 5657 5663 5669 5674 5678 5682 5685 5688 5691 5693 5694 5699 5706 5708 5709 5709 5710 5714 5719 5724 5726 5727 5730 5735 5738 5741 5744 5747 5749 5751 5753 5755
5544 5540 5536 5532 5528 5526 5525 5524 5523 5522 5522 5520 5518 5515 5513 5511 5510 5508 5507 5506 5505 5505 5505 5507 5508 5510 5511 5513 5514 5517 5521 5525 5529 5533 5538 5543 5547 5552 5557 5563 5571 5578 5585 5591 5596 5601 5606 5611 5616 5621 5626 5631 5637 5643 5648 5653 5656 5661 5668 5672 5674 5678 5681 5685 5689 5691 5693 5698 5704 5707 5707 5706 5709 5713 5717 5722 5724 5726 5728 5732 5736 5739 5741 5743 5746 5748 5751 5753
5545 5541 5537 5533 5529 5527 5526 5526 5525 5524 5523 5521 5518 5516 5514 5512 5511 5509 5508 5507 5506 5506 5507 5509 5510 5512 5513 5515 5516 5518 5522 5525 5528 5532 5538 5543 5547 5551 5557 5563 5569 5576 5582 5588 5596 5602 5607 5612 5617 5621 5625 5629 5635 5641 5647 5651 5655 5661 5666 5670 5672 5676 5681 5685 5689 5691 5694 5698 5702 5705 5704 5704 5708 5712 5714 5719 5723 5724 5727 5730 5733 5735 5737 5740 5742 5745 5748 5751
5546 5542 5538 5535 5532 5530 5529 5528 5527 5526 5524 5522 5520 5518 5516 5513 5512 5511 5510 5509 5508 5509 5510 5511 5512 5513 5515 5517 5518 5520 5523 5526 5529 5532 5537 5543 5548 5552 5557 5562 5568 5575 5581 5587 5594 5600 5606 5611 5616 5622 5626 5630 5634 5639 5643 5647 5651 5658 5662 5666 5670 5676 5681 5685 5688 5690 5692 5695 5698 5701 5702 5703 5707 5711 5713 5717 5722 5724 5726 5728 5731 5733 5735 5737 5740 5743 5746 5749
5549 5544 5540 5538 5536 5534 5532 5530 5529 5528 5526 5523 5522 5520 5518 5515 5514 5513 5511 5511 5512 5512 5512 5513 5515 5516 5517 5518 5520 5522 5525 5528 5531 5533 5537 5542 5548 5552 5556 5562 5568 5574 5581 5588 5594 5599 5605 5611 5614 5619 5625 5630 5635 5640 5643 5647 5652 5656 5660 5665 5670 5674 5677 5681 5684 5687 5688 5691 5694 5698 5701 5702 5705 5708 5711 5715 5721 5723 5725 5727 5729 5730 5732 5735 5738 5741 5744 5746
5553 5547 5543 5540 5539 5537 5534 5533 5531 5529 5527 5526 5524 5522 5520 5518 5517 5515 5514 5514 5515 5515 5515 5515 5517 5518 5519 5520 5521 5523 5526 5529 5532 5535 5539 5543 5548 5553 5557 5562 5568 5574 5581 5587 5593 5598 5604 5610 5613 5618 5623 5628 5633 5637 5641 5647 5652 5656 5661 5666 5668 5670 5673 5676 5679 5682 5685 5687 5691 5695 5699 5701 5702 5705 5709 5714 5719 5721 5723 5725 5727 5729 5730 5733 5736 5739 5741 5743
5555 5550 5547 5544 5541 5539 5536 5535 5533 5531 5529 5528 5526 5524 5522 5521 5519 5518 5517 5516 5517 5518 5517 5518 5519 5519 5520 5521 5523 5526 5528 5530 5533 5537 5540 5543 5548 5553 5558 5563 5568 5574 5580 5586 5592 5597 5603 5608 5613 5618 5624 5627 5630 5633 5637 5642 5647 5652 5658 5664 5667 5669 5671 5674 5677 5680 5683 5686 5688 5692 5696 5698 5700 5703 5707 5712 5716 5718 5720 5723 5726 5728 5729 5732 5734 5737 5739 5742
5558 5554 5551 5548 5545 5542 5539 5537 5536 5534 5532 5530 5528 5526 5525 5524 5522 5521 5520 5519 5520 5521 5521 5521 5521 5522 5523 5524 5526 5529 5530 5532 5535 5538 5542 5545 5548 5553 5559 5564 5569 5574 5580 5586 5591 5595 5601 5606 5611 5617 5622 5625 5628 5632 5635 5639 5642 5646 5651 5658 5663 5665 5668 5673 5676 5678 5682 5684 5686 5690 5692 5694 5698 5701 5705 5709 5713 5716 5718 5720 5724 5726 5728 5730 5733 5735 5738 5741
5561 5558 5555 5552 5548 5546 5544 5541 5539 5537 5535 5533 5530 5529 5527 5526 5525 5524 5524 5523 5523 5524 5524 5524 5524 5524 5525 5527 5530 5532 5533 5534 5537 5541 5543 5546 5550 5554 5560 5566 5570 5574 5579 5585 5590 5594 5600 5605 5609 5615 5619 5622 5627 5632 5636 5640 5643 5646 5650 5655 5659 5662 5666 5670 5673 5676 5680 5682 5684 5687 5689 5692 5695 5698 5703 5707 5710 5714 5717 5718 5721 5724 5726 5728 5731 5734 5737 5739
5565 5562 5559 5555 5552 5549 5547 5544 5541 5539 5537 5535 5532 5531 5530 5529 5529 5528 5528 5527 5526 5527 5527 5527 5527 5527 5528 5530 5533 5534 5536 5537 5539 5542 5545 5548 5551 5555 5561 5567 5572 5575 5580 5586 5592 5596 5600 5604 5607 5612 5617 5622 5627 5632 5636 5640 5644 5648 5652 5656 5659 5663 5666 5669 5672 5675 5679 5681 5683 5685 5687 5690 5692 5696 5700 5704 5707 5711 5715 5717 5719 5722 5724 5726 5729 5732 5734 5737
5568 5564 5561 5557 5555 5552 5549 5546 5543 5541 5538 5537 5535 5534 5533 5533 5532 5532 5531 5530 5530 5530 5530 5530 5530 5530 5531 5533 5536 5537 5538 5540 5541 5544 5547 5550 5553 5555 5561 5568 5572 5576 5581 5587 5591 5595 5599 5603 5607 5611 5617 5623 5628 5632 5636 5640 5643 5646 5651 5655 5658 5661 5665 5668 5672 5675 5677 5680 5682 5683 5686 5688 5690 5694 5698 5701 5703 5708 5711 5714 5717 5719 5721 5724 5727 5729 5732 5734
5569 5566 5563 5560 5557 5555 5552 5549 5546 5543 5542 5540 5539 5537 5537 5536 5535 5534 5533 5533 5533 5533 5533 5533 5533 5534 5535 5537 5539 5540 5541 5542 5544 5546 5548 5551 5554 5556 5561 5567 5572 5577 5582 5587 5591 5596 5599 5603 5607 5610 5615 5621 5626 5631 5633 5637 5640 5644 5648 5652 5656 5659 5663 5667 5671 5674 5676 5679 5681 5683 5685 5687 5690 5693 5695 5698 5700 5704 5708 5711 5714 5716 5719 5722 5724 5727 5729 5731
5571 5568 5565 5562 5560 5557 5554 5552 5549 5547 5545 5544 5542 5541 5540 5539 5537 5536 5536 5536 5536 5536 5536 5536 5536 5537 5538 5539 5541 5542 5544 5545 5546 5547 5549 5552 5554 5557 5561 5567 5573 5579 5584 5588 5592 5596 5601 5604 5607 5610 5613 5617 5622 5626 5629 5632 5636 5640 5645 5650 5655 5658 5660 5664 5668 5671 5673 5677 5680 5681 5683 5685 5688 5691 5693 5696 5699 5702 5705 5708 5710 5713 5716 5719 5721 5724 5726 5728
5574 5570 5567 5564 5562 5559 5557 5554 5552 5550 5548 5547 5546 5544 5543 5541 5540 5539 5539 5539 5539 5539 5539 5538 5539 5539 5541 5542 5544 5545 5546 5547 5548 5549 5551 5554 5556 5558 5561 5566 5574 5580 5584 5588 5593 5597 5601 5605 5607 5611 5616 5619 5622 5625 5628 5631 5635 5639 5645 5649 5653 5656 5658 5661 5665 5668 5671 5675 5678 5679 5681 5683 5686 5689 5692 5694 5697 5700 5702 5705 5708 5710 5713 5716 5718 5721 5723 5726
5576 5573 5570 5567 5564 5561 5559 5556 5554 5552 5551 5549 5549 5547 5546 5544 5543 5542 5542 5542 5541 5542 5542 5542 5542 5542 5544 5545 5546 5547 5548 5549 5550 5551 5554 5556 5559 5562 5564 5569 5576 5581 5584 5588 5593 5597 5600 5605 5608 5612 5617 5621 5624 5626 5630 5633 5636 5640 5645 5648 5652 5655 5658 5660 5663 5666 5671 5674 5677 5678 5679 5681 5684 5687 5690 5692 5694 5697 5700 5703 5706 5708 5711 5714 5716 5719 5721 5723
5578 5575 5573 5570 5567 5564 5562 5559 5557 5555 5553 5552 5551 5550 5549 5548 5546 5545 5545 5545 5544 5544 5544 5544 5545 5545 5546 5547 5548 5549 5550 5551 5552 5554 5556 5559 5562 5565 5569 5573 5578 5581 5584 5588 5593 5596 5600 5605 5609 5612 5615 5619 5622 5625 5629 5632 5636 5640 5644 5648 5651 5654 5657 5659 5663 5667 5670 5674 5676 5677 5678 5680 5682 5685 5688 5690 5692 5695 5698 5701 5703 5706 5709 5711 5713 5716 5719 5721
5581 5578 5575 5572 5570 5567 5565 5562 5560 5558 5556 5555 5553 5553 5552 5551 5550 5549 5548 5548 5548 5547 5547 5547 5547 5548 5548 5549 5550 5551 5552 5553 5554 5556 5558 5560 5563 5567 5571 5574 5578 5581 5584 5589 5593 5596 5600 5604 5608 5612 5614 5617 5620 5623 5626 5630 5634 5639 5644 5647 5650 5653 5656 5658 5662 5665 5669 5672 5674 5675 5676 5678 5680 5683 5687 5689 5690 5693 5695 5698 5701 5703 5706 5708 5710 5713 5715 5717
5584 5581 5578 5575 5572 5570 5567 5565 5563 5561 5559 5557 5556 5555 5554 5554 5553 5552 5551 5551 5550 5550 5550 5550 5550 5550 5551 5552 5552 5553 5554 5555 5557 5558 5560 5562 5565 5569 5572 5574 5577 5581 5585 5589 5593 5596 5600 5604 5608 5611 5614 5616 5619 5622 5625 5628 5632 5637 5642 5645 5648 5651 5654 5657 5660 5663 5666 5669 5672 5672 5673 5676 5678 5681 5684 5687 5689 5690 5692 5695 5698 5700 5703 5705 5707 5709 5711 5714
5586 5583 5580 5578 5575 5573 5570 5568 5566 5564 5562 5561 5559 5558 5557 5556 5556 5555 5554 5553 5553 5553 5553 5553 5553 5553 5554 5554 5555 5556 5557 5557 5559 5561 5562 5564 5567 5570 5573 5576 5579 5583 5586 5589 5593 5597 5600 5603 5607 5610 5613 5616 5619 5622 5625 5628 5632 5636 5640 5643 5646 5649 5652 5655 5657 5660 5663 5666 5668 5669 5671 5674 5676 5679 5682 5684 5687 5689 5691 5693 5695 5697 5700 5702 5704 5706 5708 5711
5587 5585 5583 5580 5578 5575 5573 5571 5569 5567 5565 5564 5562 5561 5559 5558 5558 5557 5556 5556 5556 5556 5556 5555 5555 5556 5557 5557 5558 5558 5559 5560 5561 5563 5565 5567 5569 5572 5575 5578 5581 5584 5587 5589 5593 5598 5601 5604 5607 5610 5614 5616 5619 5622 5625 5629 5633 5636 5638 5641 5644 5646 5649 5652 5655 5657 5660 5663 5665 5668 5670 5672 5674 5676 5679 5682 5685 5688 5690 5691 5693 5695 5697 5699 5701 5704 5706 5708